Hourly Data Report for September 08, 2017

All times are specified in Local Standard Time (LST). Add 1 hour to adjust for Daylight Saving Time where and when it is observed.

PORT ALBERNI (AUT)
BRITISH COLUMBIA

49°18'59.700" N
124°55'36.600" W
76.20 m
1036B06
71475
WQC

Related Data

No related data is available for this station

Download Data

Hourly Data (September 2017)
Hourly Data Report for September 8, 2017
Temp Definition
°C
Dew Point Temp Definition
°C
Rel Hum Definition
%
Wind Dir Definition
10's deg

Wind Spd Definition
km/h
Visibility Definition
km
Stn Press Definition
kPa
Hmdx Definition


Wind Chill Definition


Weather Definition


TIME
00:00 17.0 16.5 97 12 4   100.39     LegendNANA
01:00 16.7 16.2 97 14 4   100.41     LegendNANA
02:00 16.6 16.0 97 12 6   100.44     LegendNANA
03:00 16.6 16.0 96 10 3   100.43     LegendNANA
04:00 16.4 15.7 96 9 7   100.44     LegendNANA
05:00 16.3 15.5 95 13 3   100.43     LegendNANA
06:00 16.1 15.4 96 3 3   100.47     LegendNANA
07:00 16.1 15.5 96 9 4   100.48     LegendNANA
08:00 16.7 15.6 94 5 5   100.54     LegendNANA
09:00 17.3 15.8 91 18 3   100.54     LegendNANA
10:00 19.1 14.6 75 10 3   100.53     LegendNANA
11:00 20.8 14.0 65 17 6   100.49     LegendNANA
12:00 22.6 14.4 60 13 9   100.44 26   LegendNANA
13:00 23.8 13.9 54 13 15   100.38 27   LegendNANA
14:00 23.1 12.9 53 9 15   100.33 26   LegendNANA
15:00 25.3 12.5 45 11 19   100.28 28   LegendNANA
16:00 23.4 10.7 45 22 11   100.29 25   LegendNANA
17:00 22.1 11.7 52 18 6   100.29     LegendNANA
18:00 20.7 11.8 57 13 11   100.31     LegendNANA
19:00 16.8 11.7 72 10 13   100.36     LegendNANA
20:00 15.3 11.7 79 10 12   100.41     LegendNANA
21:00 14.3 11.2 82 9 11   100.44     LegendNANA
22:00 14.3 10.8 79 9 13   100.47     LegendNANA
23:00 14.0 10.7 81 10 11   100.51     LegendNANA

Notes on Data Quality.

Legend

  • E = Estimated
  • M = Missing
  • NA = Not Available
  • ‡ = Partner data that is not subject to review by the National Climate Archives
Date modified: